GFSFLT2_250_spd_210.txt.gz
Wind_Speed
125 124 125 125 123 124 127 128 127 123 117 108 101 98 98 97 96 93 91 89 88 86 82 79 75 72 72
132 131 129 130 132 133 133 130 124 120 112 106 105 107 107 107 106 106 105 102 100 97 93 92 88 87 82
130 134 134 136 136 137 133 131 130 118 114 116 117 117 118 117 117 115 112 112 110 107 105 101 98 95 95
136 140 140 137 138 132 130 130 124 122 123 126 128 127 127 124 124 123 121 120 117 113 110 109 109 107 104
134 134 139 139 137 134 127 121 125 130 132 134 137 138 137 132 127 121 115 109 107 109 109 106 103 107 109
140 137 137 132 131 129 133 135 133 137 140 140 143 140 135 126 119 114 110 109 107 105 103 104 105 99 101
137 135 133 137 131 135 137 138 141 145 143 139 136 131 125 121 113 107 103 101 99 98 98 99 100 101 102
135 134 137 138 141 142 145 148 148 146 137 125 123 119 115 112 103 96 90 87 83 82 83 85 87 90 95
137 135 141 143 147 149 150 149 141 134 127 116 113 106 101 97 90 85 82 79 76 75 76 76 78 80 83
137 140 144 148 152 152 146 138 129 123 117 110 101 90 88 88 84 79 74 69 69 68 68 70 71 70 72
140 145 148 149 149 147 137 128 122 116 104 91 88 84 80 79 78 72 67 65 62 62 62 63 63 62 66
144 147 148 146 140 134 128 121 113 99 90 83 80 77 76 73 70 69 64 59 57 56 54 55 57 58 61
142 142 138 134 128 123 117 106 96 89 84 78 74 73 70 67 67 62 60 56 51 54 49 48 49 52 54
135 132 128 123 118 110 100 91 87 85 78 71 69 67 66 62 60 59 51 54 47 48 45 44 45 47 49
126 121 116 112 104 94 88 85 81 77 74 68 62 63 62 58 56 53 48 48 45 43 40 40 40 43 44
117 112 105 96 90 86 82 78 75 71 67 64 61 59 56 54 54 51 41 44 40 39 37 36 37 38 39
107 99 91 86 84 81 76 72 69 64 61 59 58 56 54 49 43 50 38 38 36 35 34 34 35 35 36

GFSFLT2_250_spd_216.txt.gz
Wind_Speed
92 97 99 99 100 103 109 114 120 130 133 134 140 141 142 144 135 115 99 96 92 93 92 96 93 93 89
99 100 100 106 107 114 116 123 131 133 137 144 148 147 147 140 125 110 104 102 101 105 104 106 105 103 101
99 105 108 113 119 123 128 134 137 143 148 151 154 153 145 126 114 111 111 113 115 116 117 116 112 108 104
109 119 118 121 127 128 135 139 145 148 153 154 155 139 138 122 121 121 123 124 126 126 125 118 111 104 99
118 119 121 125 133 140 146 150 151 154 158 154 137 128 125 127 127 132 130 134 131 125 119 112 102 97 93
125 129 135 140 143 146 149 158 164 165 153 141 132 125 132 133 138 136 140 135 123 118 108 102 95 90 86
136 138 145 151 154 154 157 159 162 150 146 129 131 134 135 142 144 141 134 122 115 108 99 92 86 79 76
143 150 152 154 160 164 160 149 148 136 135 134 135 139 145 148 142 132 122 113 106 98 87 78 73 69 67
153 155 154 158 162 155 149 143 130 135 138 137 143 144 149 145 135 120 112 103 94 86 78 72 67 65 66
154 153 157 153 149 148 143 134 134 137 142 145 147 146 140 135 125 112 102 91 83 80 75 70 65 62 60
152 152 154 142 142 142 133 138 138 139 146 146 143 138 129 119 115 104 89 84 79 73 66 62 60 56 57
147 152 145 139 140 138 137 137 144 144 143 141 135 125 117 110 100 92 85 79 70 66 59 55 51 50 50
145 135 132 138 136 139 142 144 145 142 139 131 123 116 107 95 89 84 76 73 63 58 55 52 45 45 45
128 130 137 131 139 142 143 142 141 136 127 119 113 104 93 86 79 76 72 66 62 53 50 48 42 45 42
131 129 132 136 140 141 139 136 132 126 120 109 99 91 86 78 72 69 67 61 55 51 49 44 39 41 40
129 133 135 135 138 136 132 128 122 114 105 96 90 85 79 75 63 63 64 57 52 46 48 42 38 37 36
131 131 133 132 132 130 124 118 110 102 93 86 83 78 73 71 65 50 58 52 47 45 43 38 35 33 32

GFSFLT2_250_spd_219.txt.gz
Wind_Speed
89 88 94 95 94 90 93 96 101 106 108 105 114 121 125 132 138 144 134 137 125 110 106 96 93 90 91
100 99 98 94 91 93 99 106 108 112 106 115 121 127 136 141 148 147 143 126 116 106 105 102 102 102 104
102 99 91 95 97 107 107 109 110 122 126 127 132 139 146 146 149 146 133 123 112 109 111 110 113 115 111
103 92 96 100 105 107 112 118 124 126 134 139 142 146 151 150 147 138 125 124 116 121 118 121 122 116 109
99 98 104 106 111 117 124 128 130 139 142 147 149 154 154 151 144 131 129 126 125 126 128 125 120 114 105
108 107 113 121 123 127 133 136 144 150 150 151 152 155 150 139 136 131 132 133 133 132 130 122 115 103 97
110 122 128 133 134 141 144 146 155 157 158 154 155 150 146 141 137 139 137 134 135 132 124 114 105 99 91
127 130 135 141 143 147 151 150 154 152 156 152 145 143 137 134 140 136 136 137 132 124 114 106 97 88 79
134 140 143 146 147 153 154 152 151 158 156 142 139 131 135 141 137 141 137 132 123 112 104 98 88 77 74
140 144 150 151 149 149 151 153 151 152 140 137 130 134 140 138 143 138 132 121 112 102 96 86 78 72 68
144 146 151 152 150 157 154 147 144 129 131 135 136 139 139 139 135 128 120 112 105 95 85 79 71 63 62
149 151 154 153 149 149 147 133 126 133 140 134 137 138 135 130 126 120 112 106 95 85 78 72 66 59 55
151 155 155 147 143 142 127 132 137 136 139 139 134 131 128 122 114 111 103 99 89 78 71 65 61 54 53
150 144 131 132 128 133 129 132 135 140 141 133 128 124 120 114 107 100 92 86 83 74 66 63 56 49 51
130 130 119 135 135 128 132 135 136 133 131 129 123 115 111 105 99 88 81 81 74 66 59 59 50 45 47
129 122 127 124 128 133 135 134 129 126 123 119 111 109 105 101 86 78 74 74 68 62 55 57 49 41 43
121 124 128 130 133 132 130 126 123 120 114 108 102 98 93 87 86 74 63 65 65 57 52 53 46 40 38

GFSFLT2_250_spd_222.txt.gz
Wind_Speed
78 83 83 88 87 90 93 99 100 102 104 109 100 98 97 111 117 121 130 129 123 128 121 115 110 103 92
86 91 93 90 95 100 103 101 106 105 106 102 100 103 117 124 127 133 139 134 139 131 119 107 108 102 98
96 99 97 99 103 105 102 102 104 103 99 105 113 124 130 133 138 144 143 136 138 125 117 111 111 102 105
99 103 104 107 109 107 104 105 106 101 115 120 127 130 138 141 146 149 146 138 126 118 113 113 116 115 114
104 104 107 106 107 107 103 106 112 114 123 132 136 139 144 150 153 145 146 138 122 119 118 121 120 123 122
103 110 111 110 108 103 111 115 126 132 136 142 143 150 150 155 156 150 133 130 124 121 124 125 128 123 115
107 103 106 103 108 116 123 129 136 140 145 145 150 152 156 154 150 132 125 129 126 127 128 129 122 115 111
103 106 112 119 126 131 134 138 142 147 151 147 154 154 150 153 139 131 135 133 129 132 131 123 116 108 101
120 125 127 131 133 136 141 145 148 151 156 157 154 153 148 137 141 133 130 131 133 133 126 117 107 98 93
128 131 134 137 140 146 148 150 150 153 153 159 158 143 127 141 130 137 138 137 134 129 120 107 98 89 82
135 138 140 143 146 149 150 147 154 153 158 152 139 133 140 127 136 141 138 133 127 119 111 102 91 79 71
142 142 138 148 151 153 157 160 153 156 152 135 139 142 136 138 138 138 131 126 116 108 102 95 84 73 69
137 144 147 151 152 151 156 151 151 149 133 135 139 130 138 137 132 127 120 113 107 101 95 84 78 68 67
140 143 145 145 144 147 135 138 124 131 142 142 132 138 136 129 123 117 110 101 98 94 83 79 75 63 61
140 140 142 140 137 130 123 135 137 137 133 138 137 133 128 122 115 109 98 93 88 82 76 74 71 60 57
133 131 123 128 134 130 132 135 129 134 135 132 126 122 120 119 110 98 89 83 80 78 72 63 65 58 51
127 139 125 121 138 119 126 132 135 133 126 123 117 112 107 104 106 99 80 75 74 73 66 58 57 55 49

GFSFLT2_250_spd_228.txt.gz
Wind_Speed
77 78 77 76 77 77 79 79 80 78 80 78 84 88 90 92 98 102 106 107 104 106 106 111 124 122 131
76 79 79 83 79 81 82 80 80 83 83 86 91 93 97 102 103 107 107 106 107 117 115 126 126 132 140
80 80 83 83 84 85 84 83 85 87 89 91 95 101 105 107 111 114 108 109 119 122 124 134 137 142 143
83 86 87 89 88 88 90 93 96 96 98 101 106 108 112 114 113 114 114 121 128 130 134 138 145 144 147
88 89 90 90 90 90 94 100 101 102 106 111 112 113 114 114 115 121 124 133 136 137 142 146 148 148 149
90 92 92 93 95 100 99 106 108 109 109 114 113 118 117 120 124 129 138 138 141 143 147 147 155 145 141
94 97 97 100 104 106 107 109 111 113 118 121 126 126 123 123 132 136 142 145 148 154 152 158 145 147 138
102 104 106 110 112 113 113 115 120 128 125 127 128 127 134 141 142 144 147 150 160 156 155 146 143 135 139
103 107 109 109 113 118 117 123 126 128 128 132 133 138 144 148 153 153 156 156 159 155 141 141 136 128 124
111 109 112 119 115 119 126 127 126 129 134 132 145 146 149 148 157 163 156 158 145 139 138 140 136 129 128
115 115 118 120 123 124 127 130 132 135 137 144 148 154 151 151 148 151 143 144 137 140 136 133 132 132 122
117 123 120 125 128 127 135 138 143 148 152 153 154 153 153 153 142 150 140 139 153 137 128 129 130 124 120
126 134 131 133 138 146 146 149 148 141 148 147 150 145 150 148 146 136 138 120 117 122 124 121 121 118 108
138 141 142 145 143 142 143 138 140 147 147 141 144 138 145 147 139 119 110 114 119 117 115 113 114 108 101
146 145 139 134 132 136 132 134 133 129 132 142 146 146 135 120 110 113 113 111 112 111 108 106 108 101 93
141 131 125 126 126 121 119 124 126 128 126 124 122 117 113 117 116 106 106 109 107 106 103 101 98 91 82
117 116 114 115 111 109 109 110 114 115 115 113 114 113 111 115 120 114 107 104 101 103 101 98 84 76 75